FREGAT DEB, 45879

Orbit data source: Space-Track

FREGAT DEB, 45879 is space debris in LEO originally from a launch on Mon, 18 Jul 2011 UTC launched from the Tyuratam Missile And Space Complex (TTMTR). Debris objects in space refer to the collection of defunct objects orbiting the Earth. Examples of debris include non-operational satellites, rocket bodies, and fragments generated from explosions, collisions, or faulty payload assembly.

Loading next visibility...
Identifier
45879, 2011-037CY
Orbit
LEO
Country
Flag of CISCIS
Related business
Manufacturer
Lavochkin
Mission
Spacecraft
Bus & Motor
Unknown
Mass
Unknown
Launch date (UTC)
2011-07-18 (15 years ago)
Launch vehicle
Unknown
Launch site
Tyuratam Missile And Space Complex (TTMTR)
Object type
Payload
Rocket body
Debris
Shape & HBR
Unknown shape, 1.1 m
Radar Cross Section
Small (<0.1 m²)

Expand to show TLE details & history
Last TLE update: 4 months ago

TLE from 4 months ago
0 FREGAT DEB
1 45879U 11037CY  26038.41302199  .00158123  00000-0  24740+0 0  9999
2 45879  50.4684  34.4845 1080565  66.9721 304.1315 12.14416118133773
Epoch: 2026-02-07T09:54Z
TLE epoch observation values (Epoch: 2026-02-07T09:54:45.099Z)
Latitude
-0.00002°
Longitude
108.25966°
Altitude
1,202.574 km
Speed
7.439 km/s
True Right ascension
02h 17m 56s
True Declination
0° 00' 00"
Sunlit
Object was in daylight at epoch
Visualization orbit readout
Latitude
Unknown
Longitude
Unknown
Altitude
Unknown
Speed
Unknown
Apparent Right ascension
Unknown
Apparent Declination
Unknown
Sunlit
N/A
Visualization observer readout
Local Sidereal Time
06:58:06
Azimuth
Unknown
Elevation
Unknown
Doppler factor
Unknown
Orbital elements
Apogee altitude
2,481.552 km
Perigee altitude
753.577 km
Semi-major axis
7,995.701 km
Eccentricity
0.10806
Inclination
50.4684°
RAAN
34.4845°
Arg. of periapsis
66.9721°
True anomaly
293.11343°
Mean anomaly
304.1315°
Eccentric anomaly
298.70098°
Mean motion
3.0357 °/min
Orbital period
118.59 mins
BSTAR
0.2474
Loading maneuver chart data...
Computing Atmospheric mass density...
Loading historical data...
Loading historical data...
Loading historical data...
Loading historical data...
Loading historical data...
Loading historical data...
Loading historical data...

Documentation

Showing up to 5 results
|